Miscellaneous Local Product
Issued by NWS Hastings, NE

Home | Current Version | Previous Version | Graphics & Text | Print | Product List | Glossary On
Versions: 1 2 3 4 5 6 7 8 9 10 11 12 13 14 15 16 17 18 19 20 21 22 23 24 25 26 27 28 29 30 31 32 33 34 35 36 37 38 39 40 41 42 43 44 45 46 47 48 49 50
000
AXUS43 KGID 271902
MISGRI

GID CWA HOURLY WEATHER ROUNDUP
NATIONAL WEATHER SERVICE HASTINGS NE
200 PM CDT SAT AUG 27 2016

NOTE: "FAIR" INDICATES FEW OR NO CLOUDS BELOW 12,000 FEET WITH NO
SIGNIFICANT WEATHER AND/OR OBSTRUCTIONS TO VISIBILITY.

...SOUTH CENTRAL NEBRASKA...

CITY           SKY/WX    TMP DP  RH WIND       PRES   REMARKS
GRAND ISLAND   SUNNY     82  58  43 S7        30.02F
HASTINGS       SUNNY     82  61  48 SE12      30.04S
KEARNEY        SUNNY     81  61  50 S12       30.02S
ORD            SUNNY     78  58  49 MISG      30.01S
YORK           SUNNY     77  59  53 SE3       30.03S
AURORA         SUNNY     79  58  48 CALM      30.03S
LEXINGTON      SUNNY     81  59  47 S10G17    30.03S
HOLDREGE       SUNNY     79  58  48 S10       30.04S
HEBRON         SUNNY     79  65  63 S7        30.03F

...NEBRASKA PANHANDLE...

CITY           SKY/WX    TMP DP  RH WIND       PRES   REMARKS
CHADRON        SUNNY     80  50  34 W5        29.96F
ALLIANCE       SUNNY     79  52  38 S9        30.02F
SCOTTSBLUFF    SUNNY     81  48  31 CALM      30.03F
SIDNEY         CLOUDY    76  51  41 S9        30.08F

...WESTERN AND NORTH CENTRAL NEBRASKA...

CITY           SKY/WX    TMP DP  RH WIND       PRES   REMARKS
VALENTINE      SUNNY     80  58  46 S16       29.98F
AINSWORTH      MOSUNNY   79  60  51 S10       29.99F
ONEILL         SUNNY     82  56  39 S12G20    30.00S
BROKEN BOW     SUNNY     80  58  46 VRB5G20   30.02S
IMPERIAL       CLOUDY    77  60  55 S10       30.04F
NORTH PLATTE   SUNNY     82  62  50 S12       30.02F
MCCOOK         SUNNY     80  62  54 S7        30.03F

...EASTERN NEBRASKA...

CITY           SKY/WX    TMP DP  RH WIND       PRES   REMARKS
NORFOLK        MOSUNNY   76  63  64 SE8       30.02S
SO SIOUX CITY  CLOUDY    75  64  68 SW7       30.01S
TEKAMAH        PTSUNNY   77  65  66 S5        30.01S
COLUMBUS       SUNNY     79  61  53 SW6       30.03S
ALBION         MOSUNNY   76  63  62 S6        30.02S
OMAHA EPPLEY   MOSUNNY   80  63  55 S6        30.01S
OFFUTT AFB     PTSUNNY   79  66  64 S9        30.01S
MILLARD        MOSUNNY   80  65  61 SW9       30.01S
LINCOLN        SUNNY     83  64  52 W7        30.02S
NEBRASKA CITY  PTSUNNY   77  67  70 S5        30.04R
BEATRICE       SUNNY     79  66  64 S6        30.03S
FALLS CITY     SUNNY     81  69  67 CALM      30.01F

...NORTHERN KANSAS...

CITY           SKY/WX    TMP DP  RH WIND       PRES   REMARKS
GOODLAND       SUNNY     78  60  53 SE8       30.06F
HILL CITY      SUNNY     82  65  56 VRB7      30.03F
NORTON         CLEAR     79  59  50 SE9       30.03S
SMITH CENTER   MOSUNNY   81  64  57 E8        30.04F
BELOIT         SUNNY     79  66  65 SE7       30.03R
HAYS           SUNNY     82  63  51 SE8       30.03S
RUSSELL        SUNNY     82  65  56 SE8       30.02F
CONCORDIA      SUNNY     80  67  64 E6        30.04S
SALINA         MOSUNNY   84  68  58 S6        30.03S
TOPEKA         PTSUNNY   83  71  67 S5        30.02S



USA.gov is the U.S. government's official web portal to all federal, state and local government web resources and services.